Back to catalog

DELTA 2 R/B

AlivePO
NORAD 24797·ROCKET BODY·🇺🇸 United States

Launched May 5, 1997 from Vandenberg Space Force Base

Loading…

Next Passes (next 24 hours)

TLE

FreshSource: Space-Track

Epoch: Sep 14, 2026, 07:16 UTC

1 24797U 97020F   26257.30298669  .00000302  00000-0  55841-4 0  9994
2 24797  86.9009 194.6107 0213035 200.2625 320.2494 14.48034825545481

Track DELTA 2 R/B in real time with AllMySat

Download on the App Store